Location: Newark
(35.5300°N, 14.3000°E)
Time: 14:42:07
(UTC+00:00)

S-56A Canister/Altair - All Passes

Search period start: 17 November 2019 00:00
Search period end: 27 November 2019 00:00
Orbit: 634 x 2498 km, 38.9° (Epoch: 16 November)

Date Brightness Start Highest point End Pass type
(mag) Time Alt. Az. Time Alt. Az. Time Alt. Az.
17 Nov - 14:25:01 10° SSW 14:35:01 33° SSE 14:42:09 10° E daylight
17 Nov - 16:29:55 10° WSW 16:39:47 78° SSE 16:46:09 10° ENE visible
17 Nov - 18:36:51 10° W 18:44:16 64° N 18:49:25 10° ENE visible
17 Nov - 20:42:49 10° WNW 20:48:26 88° NNE 20:52:56 10° ESE visible
17 Nov - 22:48:04 10° W 22:51:36 22° SW 22:55:02 10° SSE night (unlit)
18 Nov - 13:51:47 10° SSW 14:01:58 31° SE 14:09:25 10° E daylight
18 Nov - 15:56:19 10° WSW 16:06:53 72° SSE 16:13:43 10° ENE daylight
18 Nov - 18:03:23 10° W 18:11:32 67° N 18:17:00 10° ENE visible
18 Nov - 20:09:45 10° WNW 20:15:51 81° NNE 20:20:28 10° ESE visible
18 Nov - 22:15:06 10° W 22:19:08 27° SW 22:22:51 10° SSE night (unlit)
19 Nov - 13:18:38 10° SSW 13:28:51 29° SE 13:36:35 10° E daylight
19 Nov - 15:22:41 10° SW 15:33:57 68° SSE 15:41:15 10° ENE daylight
19 Nov - 17:29:48 10° W 17:38:44 71° N 17:44:36 10° ENE visible
19 Nov - 19:36:34 10° WNW 19:43:15 76° NNE 19:48:03 10° E visible
19 Nov - 21:42:06 10° W 21:46:40 33° SSW 21:50:39 10° SSE night (unlit)
20 Nov - 12:45:33 10° SSW 12:55:43 26° SE 13:03:37 10° E daylight
20 Nov - 14:49:04 10° SW 15:00:55 63° SSE 15:08:44 10° ENE daylight
20 Nov - 16:56:08 10° W 17:05:53 75° N 17:12:11 10° ENE visible
20 Nov - 19:03:17 10° WNW 19:10:33 72° N 19:15:37 10° E visible
20 Nov - 21:09:03 10° W 21:14:12 40° SSW 21:18:25 10° SE night (unlit)
21 Nov - 12:12:36 10° S 12:22:31 24° SE 12:30:32 10° E daylight
21 Nov - 14:15:27 10° SW 14:27:49 59° SSE 14:36:10 10° ENE daylight
21 Nov - 16:22:24 10° W 16:32:58 79° NNW 16:39:44 10° ENE visible
21 Nov - 18:29:53 10° WNW 18:37:50 70° N 18:43:12 10° E visible
21 Nov - 20:35:57 10° WNW 20:41:42 50° SSW 20:46:09 10° SE visible
22 Nov - 11:39:49 10° S 11:49:18 22° SE 11:57:15 10° E daylight
22 Nov - 13:41:53 10° SW 13:54:40 55° SSE 14:03:31 10° ENE daylight
22 Nov - 15:48:35 10° WSW 15:59:59 83° NNW 16:07:16 10° ENE daylight
22 Nov - 17:56:21 10° W 18:05:03 69° N 18:10:47 10° E visible
22 Nov - 20:02:46 10° WNW 20:09:10 59° SSW 20:13:53 10° SE visible
23 Nov - 11:07:12 10° S 11:16:04 19° SE 11:23:45 10° E daylight
23 Nov - 13:08:21 10° SW 13:21:27 51° SSE 13:30:49 10° ENE daylight
23 Nov - 15:14:46 10° WSW 15:26:56 87° NNW 15:34:47 10° ENE daylight
23 Nov - 17:22:44 10° W 17:32:12 69° N 17:38:20 10° E visible
23 Nov - 19:29:30 10° WNW 19:36:36 69° SSW 19:41:34 10° ESE visible
23 Nov - 21:36:45 10° WSW 21:39:21 14° SW 21:41:43 10° SSW night (unlit)
24 Nov - 10:34:53 10° SSE 10:42:49 17° SE 10:49:57 10° ESE daylight
24 Nov - 12:34:54 10° SW 12:48:11 47° SSE 12:58:00 10° ENE daylight
24 Nov - 14:40:55 10° WSW 14:53:48 88° SSE 15:02:15 10° ENE daylight
24 Nov - 16:49:00 10° W 16:59:16 70° N 17:05:53 10° E visible
24 Nov - 18:56:08 10° WNW 19:03:57 79° SSW 19:09:15 10° ESE visible
24 Nov - 21:03:03 10° W 21:06:54 18° SW 21:10:11 10° S night (unlit)
25 Nov - 10:02:57 10° SSE 10:09:34 14° SE 10:15:43 10° ESE daylight
25 Nov - 12:01:33 10° SSW 12:14:52 44° SE 12:25:07 10° ENE daylight
25 Nov - 14:07:05 10° WSW 14:20:36 84° SSE 14:29:40 10° ENE daylight
25 Nov - 16:15:10 10° W 16:26:17 71° N 16:33:25 10° E visible
25 Nov - 18:22:40 10° WNW 18:31:15 86° SSW 18:36:54 10° ESE visible
25 Nov - 20:29:31 10° W 20:34:26 24° SW 20:38:23 10° SSE visible
26 Nov - 09:31:49 10° SSE 09:36:20 12° SE 09:40:40 10° ESE daylight
26 Nov - 11:28:18 10° SSW 11:41:31 40° SE 11:52:07 10° E daylight
26 Nov - 13:33:18 10° WSW 13:47:19 80° SSE 13:57:00 10° ENE daylight
26 Nov - 15:41:17 10° W 15:53:11 73° N 16:00:54 10° E daylight
26 Nov - 17:49:06 10° WNW 17:58:27 88° NNE 18:04:30 10° ESE visible
26 Nov - 19:56:01 10° W 20:01:58 30° SW 20:06:27 10° SSE visible
